Location: Fluertsh�userhof
(48.7537°N, 10.3850°E)
Time: 08:25:20
(UTC+00:00)

Cosmos 1707 - Pass Details

Date: 18 September 2020
Orbit: 515 x 530 km, 82.5° (Epoch: 24 October)

Event Time Altitude Azimuth Distance (km) Brightness Sun altitude
Rises 19:15:42 0° 342° (NNW) 2,654 7.0 -18.6°
Reaches altitude 10° 19:17:58 10° 334° (NNW) 1,758 6.1 -18.9°
Maximum altitude 19:21:29 35° 268° (W) 852 4.3 -19.4°
Drops below altitude 10° 19:24:59 10° 202° (SSW) 1,740 5.3 -20.0°
Enters shadow 19:25:55 - 197° (SSW) 2,104 5.7 -20.1°
